Dickinson, ND

10:09 AM MDT on July 26, 2017 (GMT -0600)
Dickinson Municipal

Weather History for KDIK - August, 2013

Change the Weather History Date:

Thursday, August 22, 2013

  Actual Average Record
Temperature  
Mean Temperature 69 °F 67 °F  
Max Temperature 83 °F 82 °F 105 °F (1960)
Min Temperature 54 °F 53 °F 27 °F (1908)
Degree Days  
Heating Degree Days 0 2  
Month to date heating degree days 8 27  
Since 1 June heating degree days 164 198  
Since 1 July heating degree days 40 61  
Cooling Degree Days 4 4  
Month to date cooling degree days 68 122  
Year to date cooling degree days 211 351  
Since 1 June cooling degree days 202 341  
Growing Degree Days 18 (Base 50)    
Moisture  
Dew Point 49 °F    
Average Humidity 53    
Maximum Humidity 72    
Minimum Humidity 33    
Precipitation  
Precipitation 0.00 in 0.05 in 1.50 in (1918)
Month to date precipitation 1.67 1.09  
Year to date precipitation 13.17 11.84  
Sea Level Pressure  
Sea Level Pressure 30.10 in    
Wind  
Wind Speed 12 mph (ESE)    
Max Wind Speed 21 mph    
Max Gust Speed 26 mph    
Visibility 10 miles    
Events      
T = Trace of Precipitation, MM = Missing Value Source: NWS Daily Summary

Daily Weather History Graph

Daily Weather History Graph

Search for Another Location

Airport or City:

Trip Planner

Search our weather history database for the weather conditions in past years. The results will help you decide how hot, cold, wet, or windy it might be!

Date:

Astronomy

Aug. 22, 2013 Rise Set
Actual Time 5:58 AM MDT 7:48 PM MDT
Civil Twilight 5:25 AM MDT 8:20 PM MDT
Nautical Twilight 4:46 AM MDT 9:00 PM MDT
Astronomical Twilight 4:02 AM MDT 9:43 PM MDT
Moon 8:21 PM MDT (8/22) 8:00 AM MDT (8/22)
Length of Visible Light 14h 55m
Length of Day
13h 50m
Waning Gibbous, 96% of the Moon is Illuminated
Aug 22
Waning Gibbous
Aug 28
Last Quarter
Sep 5
New
Sep 12
First Quarter
Sep 19
Full

Hourly Weather History & Observations

Time (MDT) Temp. Heat Index Dew Point Humidity Pressure Visibility Wind Dir Wind Speed Gust Speed Precip Events Conditions
12:56 AM 57.0 °F - 48.0 °F 72% 30.14 in 10.0 mi ENE 5.8 mph - N/A   Partly Cloudy
1:56 AM 55.9 °F - 46.9 °F 72% 30.15 in 10.0 mi East 9.2 mph - N/A   Partly Cloudy
2:56 AM 55.0 °F - 46.0 °F 72% 30.16 in 10.0 mi East 6.9 mph - N/A   Partly Cloudy
3:56 AM 55.0 °F - 46.0 °F 72% 30.16 in 10.0 mi East 9.2 mph - N/A   Partly Cloudy
4:56 AM 57.9 °F - 45.0 °F 62% 30.15 in 10.0 mi East 10.4 mph - N/A   Overcast
5:56 AM 57.9 °F - 46.0 °F 65% 30.17 in 10.0 mi ESE 8.1 mph - N/A   Overcast
6:56 AM 60.1 °F - 46.0 °F 60% 30.18 in 10.0 mi East 9.2 mph - N/A   Overcast
7:56 AM 62.1 °F - 46.9 °F 58% 30.19 in 10.0 mi ESE 9.2 mph - N/A   Overcast
8:56 AM 66.9 °F - 45.0 °F 45% 30.18 in 10.0 mi ESE 13.8 mph - N/A   Partly Cloudy
9:56 AM 69.1 °F - 45.0 °F 42% 30.19 in 10.0 mi SE 13.8 mph - N/A   Overcast
10:56 AM 73.9 °F - 45.0 °F 35% 30.18 in 10.0 mi SE 16.1 mph - N/A   Mostly Cloudy
11:56 AM 77.0 °F - 46.9 °F 34% 30.16 in 10.0 mi SE 17.3 mph 24.2 mph N/A   Partly Cloudy
12:56 PM 79.0 °F - 48.9 °F 35% 30.13 in 10.0 mi SSE 15.0 mph - N/A   Clear
1:56 PM 81.0 °F - 51.1 °F 35% 30.10 in 10.0 mi ESE 13.8 mph - N/A   Clear
2:56 PM 82.0 °F 81.2 °F 53.1 °F 37% 30.07 in 10.0 mi SE 18.4 mph 26.5 mph N/A   Clear
3:56 PM 82.0 °F 81.2 °F 53.1 °F 37% 30.06 in 10.0 mi SSE 18.4 mph 24.2 mph N/A   Clear
4:56 PM 81.0 °F 80.5 °F 54.0 °F 39% 30.04 in 10.0 mi SSE 13.8 mph - N/A   Clear
5:56 PM 80.1 °F 79.9 °F 53.1 °F 39% 30.02 in 10.0 mi SE 12.7 mph - N/A   Clear
6:56 PM 75.9 °F - 52.0 °F 43% 30.01 in 10.0 mi SE 11.5 mph - N/A   Clear
7:56 PM 69.1 °F - 52.0 °F 54% 30.01 in 10.0 mi ESE 9.2 mph - N/A   Clear
8:56 PM 68.0 °F - 51.1 °F 55% 30.02 in 10.0 mi SE 11.5 mph - N/A   Clear
9:56 PM 68.0 °F - 51.1 °F 55% 30.01 in 10.0 mi SE 12.7 mph - N/A   Clear
10:56 PM 64.9 °F - 51.1 °F 61% 30.00 in 10.0 mi SE 9.2 mph - N/A   Clear
11:56 PM 64.9 °F - 52.0 °F 63% 29.99 in 10.0 mi SE 11.5 mph - N/A   Clear